Location: Eexterzandvoort
(53.0303°N, 6.7884°E)
Time: 20:36:20
(UTC+00:00)

PSLV R/B - Pass Details

Date: 19 May 2025
Orbit: 586 x 683 km, 97.9° (Epoch: 15 June)

Event Time Altitude Azimuth Distance (km) Brightness Sun altitude
Rises 22:39:17 0° 20° (NNE) 2,852 8.0 -16.2°
Reaches altitude 10° 22:41:38 10° 30° (NNE) 1,936 6.8 -16.3°
Maximum altitude 22:45:28 34° 96° (E) 975 4.4 -16.4°
Enters shadow 22:46:54 27° 136° (SE) 1,155 4.5 -16.4°
